UAE162 EIDW-OMDB

Flight info

Callsign UAE162
Flight time 6h 57m
Altitude 33000
Route ENDEQ1E ENDEQ Q36 EPOXI L15 FINMA DCT CHT DCT ITVIP DCT KONAN DCT KOK DCT SISGA DCT RITAX DCT EDISA DCT PICWI DCT UTABA DCT BEMKI DCT ELMEM DCT DIRAB DCT PEVAL DCT AIOSA DCT XAPAT DCT NOSTO DCT SALUN N705 MMA P751 DASUM Y234 FYM M872 BDB Y214 RAPMA DCT KUVSO DCT KATIT DCT PEKEM M628 RIGIL G783 ASPED Q308 KIPOK Q568 IMPED
Aircraft B77W/H-SDE1E2E3FGHIJ2J3J4J5M1RWXY/LB1D1

Departure

Time 2026-04-22 04:16
Airport Dublin Airport (EIDW)

Arrival

Time 2026-04-22 11:13
Airport Dubai International Airport (OMDB)
Time Latitude Longitude Altitude Speed Heading
2026-04-22 04:02 53.42563 -6.24705 216 ft 0 kts 71°
2026-04-22 04:10 53.42560 -6.24720 219 ft 4 kts 71°
2026-04-22 04:10 53.42552 -6.24761 222 ft 2 kts 71°
2026-04-22 04:11 53.42543 -6.24795 219 ft 4 kts 47°
2026-04-22 04:11 53.42531 -6.24811 222 ft 4 kts
2026-04-22 04:11 53.42509 -6.24804 218 ft 4 kts 335°
2026-04-22 04:11 53.42488 -6.24787 221 ft 1 kts 337°
2026-04-22 04:12 53.42487 -6.24787 221 ft 0 kts 337°
2026-04-22 04:14 53.42545 -6.24842 220 ft 10 kts 311°
2026-04-22 04:14 53.42539 -6.24942 219 ft 9 kts 224°
2026-04-22 04:14 53.42473 -6.24940 221 ft 15 kts 158°
2026-04-22 04:15 53.42325 -6.24835 218 ft 26 kts 157°
2026-04-22 04:15 53.42139 -6.24781 223 ft 26 kts 214°
2026-04-22 04:15 53.42029 -6.25023 223 ft 20 kts 266°
2026-04-22 04:15 53.42047 -6.25459 216 ft 73 kts 275°
2026-04-22 04:16 53.42119 -6.26763 216 ft 150 kts 275°
2026-04-22 04:16 53.42331 -6.31112 1144 ft 193 kts 274°
2026-04-22 04:16 53.42430 -6.33417 1846 ft 204 kts 274°
2026-04-22 04:17 53.42691 -6.35860 2206 ft 225 kts 295°
2026-04-22 04:17 53.43708 -6.37929 2451 ft 238 kts 332°
2026-04-22 04:17 53.45299 -6.38824 2756 ft 248 kts
2026-04-22 04:17 53.46979 -6.38204 3235 ft 249 kts 36°
2026-04-22 04:18 53.48218 -6.36262 3940 ft 243 kts 65°
2026-04-22 04:18 53.48744 -6.33621 4706 ft 239 kts 88°
2026-04-22 04:18 53.48687 -6.30900 5945 ft 235 kts 96°
2026-04-22 04:18 53.48550 -6.28109 7427 ft 244 kts 96°
2026-04-22 04:19 53.48409 -6.25223 8888 ft 252 kts 96°
2026-04-22 04:19 53.48263 -6.22251 10310 ft 259 kts 96°
2026-04-22 04:19 53.48109 -6.19164 11353 ft 276 kts 96°
2026-04-22 04:19 53.47939 -6.15754 11879 ft 311 kts 96°
2026-04-22 04:20 53.47754 -6.12049 12858 ft 325 kts 96°
2026-04-22 04:20 53.47565 -6.08206 14012 ft 336 kts 96°
2026-04-22 04:20 53.47389 -6.04646 14918 ft 346 kts 96°
2026-04-22 04:20 53.47197 -6.00721 15874 ft 355 kts 96°
2026-04-22 04:21 53.46992 -5.96537 16838 ft 365 kts 95°
2026-04-22 04:21 53.46777 -5.92184 17778 ft 374 kts 95°
2026-04-22 04:21 53.46560 -5.87828 18673 ft 384 kts 95°
2026-04-22 04:21 53.46333 -5.83318 19449 ft 392 kts 94°
2026-04-22 04:22 53.46100 -5.78719 20223 ft 400 kts 94°
2026-04-22 04:22 53.45860 -5.74025 20971 ft 407 kts 94°
2026-04-22 04:22 53.45614 -5.69253 21706 ft 414 kts 94°
2026-04-22 04:22 53.45362 -5.64404 22500 ft 419 kts 94°
2026-04-22 04:23 53.45105 -5.59502 23228 ft 425 kts 94°
2026-04-22 04:23 53.44843 -5.54536 23371 ft 430 kts 94°
2026-04-22 04:23 53.44576 -5.49543 23365 ft 429 kts 94°
2026-04-22 04:23 53.44380 -5.44509 23446 ft 440 kts 91°
2026-04-22 04:24 53.44260 -5.39294 23589 ft 455 kts 91°
2026-04-22 04:24 53.44151 -5.33910 23877 ft 466 kts 91°
2026-04-22 04:24 53.44026 -5.28428 24245 ft 474 kts 91°
2026-04-22 04:24 53.43880 -5.22890 24723 ft 478 kts 91°
2026-04-22 04:25 53.43721 -5.17303 25254 ft 480 kts 92°
2026-04-22 04:25 53.43558 -5.11699 25741 ft 483 kts 92°
2026-04-22 04:25 53.43394 -5.06055 26203 ft 486 kts 92°
2026-04-22 04:25 53.43228 -5.00374 26628 ft 490 kts 92°
2026-04-22 04:26 53.43059 -4.94633 27046 ft 495 kts 92°
2026-04-22 04:26 53.42885 -4.88858 27436 ft 498 kts 92°
2026-04-22 04:26 53.42705 -4.83030 27851 ft 502 kts 92°
2026-04-22 04:26 53.42509 -4.77157 28251 ft 506 kts 92°
2026-04-22 04:27 53.42304 -4.71262 28626 ft 509 kts 92°
2026-04-22 04:27 53.42095 -4.65400 28978 ft 513 kts 92°
2026-04-22 04:27 53.41881 -4.59420 29319 ft 516 kts 92°
2026-04-22 04:27 53.41663 -4.53393 29661 ft 519 kts 92°
2026-04-22 04:28 53.41442 -4.47329 29980 ft 522 kts 92°
2026-04-22 04:28 53.41218 -4.41249 30277 ft 525 kts 92°
2026-04-22 04:28 53.40990 -4.35131 30606 ft 526 kts 92°
2026-04-22 04:28 53.40758 -4.29024 31028 ft 524 kts 92°
2026-04-22 04:29 53.40525 -4.22951 31485 ft 521 kts 92°
2026-04-22 04:29 53.40290 -4.16895 31923 ft 519 kts 92°
2026-04-22 04:29 53.40053 -4.10882 32323 ft 518 kts 92°
2026-04-22 04:29 53.39814 -4.04859 32689 ft 517 kts 92°
2026-04-22 04:30 53.39572 -3.98853 33033 ft 516 kts 92°
2026-04-22 04:30 53.39331 -3.92862 33333 ft 517 kts 92°
2026-04-22 04:30 53.39095 -3.86826 33482 ft 519 kts 92°
2026-04-22 04:30 53.38861 -3.80801 33877 ft 517 kts 92°
2026-04-22 04:31 53.38622 -3.74813 34328 ft 514 kts 93°
2026-04-22 04:31 53.38215 -3.68885 34679 ft 512 kts 99°
2026-04-22 04:31 53.37449 -3.63084 35006 ft 509 kts 105°
2026-04-22 04:31 53.36412 -3.57420 35291 ft 508 kts 110°
2026-04-22 04:32 53.35056 -3.51942 35362 ft 511 kts 116°
2026-04-22 04:32 53.31321 -3.41810 35398 ft 510 kts 128°
2026-04-22 04:33 53.26739 -3.32971 35405 ft 505 kts 133°
2026-04-22 04:33 53.22055 -3.24236 35395 ft 505 kts 133°
2026-04-22 04:34 53.17408 -3.15458 35399 ft 505 kts 133°
2026-04-22 04:34 53.12739 -3.06698 35395 ft 506 kts 133°
2026-04-22 04:35 53.08052 -2.97936 35399 ft 507 kts 133°
2026-04-22 04:35 53.03350 -2.89167 35382 ft 508 kts 133°
2026-04-22 04:36 52.98626 -2.80397 35383 ft 509 kts 133°
2026-04-22 04:36 52.93889 -2.71627 35373 ft 510 kts 133°
2026-04-22 04:37 52.89149 -2.62878 35378 ft 511 kts 133°
2026-04-22 04:37 52.84391 -2.54122 35374 ft 511 kts 133°
2026-04-22 04:38 52.79632 -2.45400 35378 ft 511 kts 133°
2026-04-22 04:38 52.74859 -2.36701 35363 ft 511 kts 133°
2026-04-22 04:39 52.70081 -2.28024 35364 ft 511 kts 133°
2026-04-22 04:39 52.65327 -2.19413 35355 ft 511 kts 133°
2026-04-22 04:40 52.60532 -2.10757 35361 ft 511 kts 133°
2026-04-22 04:40 52.55730 -2.02118 35350 ft 512 kts 133°
2026-04-22 04:41 52.50915 -1.93488 35347 ft 512 kts 133°
2026-04-22 04:41 52.46089 -1.84866 35350 ft 513 kts 134°
2026-04-22 04:42 52.41249 -1.76248 35352 ft 514 kts 134°
2026-04-22 04:42 52.36402 -1.67645 35348 ft 514 kts 134°
2026-04-22 04:43 52.31492 -1.59115 35345 ft 515 kts 135°
2026-04-22 04:43 52.26515 -1.50672 35372 ft 516 kts 135°
2026-04-22 04:44 52.21541 -1.42244 35374 ft 516 kts 135°
2026-04-22 04:44 52.16591 -1.33850 35373 ft 517 kts 135°
2026-04-22 04:45 52.11603 -1.25413 35375 ft 518 kts 135°
2026-04-22 04:45 52.06593 -1.16970 35361 ft 518 kts 135°
2026-04-22 04:46 52.01568 -1.08560 35350 ft 519 kts 136°
2026-04-22 04:46 51.96314 -1.00542 35334 ft 518 kts 140°
2026-04-22 04:47 51.90909 -0.92809 35327 ft 519 kts 140°
2026-04-22 04:47 51.86418 -0.86371 35323 ft 519 kts 140°
2026-04-22 04:48 51.81009 -0.78598 35325 ft 520 kts 140°
2026-04-22 04:48 51.75590 -0.70830 35322 ft 521 kts 140°
2026-04-22 04:49 51.70160 -0.63074 35319 ft 522 kts 140°
2026-04-22 04:49 51.64854 -0.55079 35309 ft 524 kts 131°
2026-04-22 04:50 51.60908 -0.45216 35332 ft 525 kts 114°
2026-04-22 04:50 51.58471 -0.34177 35330 ft 525 kts 106°
2026-04-22 04:51 51.56251 -0.22960 35327 ft 527 kts 107°
2026-04-22 04:51 51.53965 -0.11776 35322 ft 528 kts 107°
2026-04-22 04:52 51.51632 -0.00666 35324 ft 528 kts 108°
2026-04-22 04:52 51.49268 0.10478 35321 ft 527 kts 108°
2026-04-22 04:53 51.46897 0.21617 35316 ft 526 kts 108°
2026-04-22 04:53 51.44526 0.32713 35315 ft 525 kts 108°
2026-04-22 04:54 51.42150 0.43776 35419 ft 525 kts 108°
2026-04-22 04:54 51.39766 0.54816 35424 ft 524 kts 108°
2026-04-22 04:55 51.37372 0.65837 35421 ft 524 kts 108°
2026-04-22 04:55 51.34972 0.76831 35388 ft 523 kts 108°
2026-04-22 04:56 51.32562 0.87812 35349 ft 523 kts 108°
2026-04-22 04:56 51.30142 0.98795 35309 ft 523 kts 108°
2026-04-22 04:57 51.27907 1.09750 35306 ft 521 kts 103°
2026-04-22 04:57 51.26121 1.20971 35306 ft 521 kts 102°
2026-04-22 04:58 51.24347 1.32192 35307 ft 521 kts 102°
2026-04-22 04:58 51.22531 1.43390 35304 ft 521 kts 103°
2026-04-22 04:59 51.20688 1.54585 35307 ft 521 kts 103°
2026-04-22 04:59 51.18838 1.65758 35307 ft 521 kts 103°
2026-04-22 05:00 51.16979 1.76919 35299 ft 521 kts 103°
2026-04-22 05:00 51.15112 1.88073 35294 ft 521 kts 103°
2026-04-22 05:01 51.13304 1.99239 35300 ft 519 kts 99°
2026-04-22 05:01 51.12433 2.10599 35304 ft 516 kts 91°
2026-04-22 05:02 51.11900 2.21996 35305 ft 516 kts 92°
2026-04-22 05:02 51.11311 2.33302 35299 ft 516 kts 92°
2026-04-22 05:03 51.10673 2.44669 35303 ft 515 kts 92°
2026-04-22 05:03 51.10024 2.56034 35308 ft 515 kts 94°
2026-04-22 05:04 51.08457 2.67153 35313 ft 517 kts 107°
2026-04-22 05:04 51.05522 2.77612 35314 ft 518 kts 117°
2026-04-22 05:05 51.02094 2.87671 35308 ft 518 kts 117°
2026-04-22 05:05 50.98671 2.97731 35305 ft 518 kts 117°
2026-04-22 05:06 50.95285 3.07799 35293 ft 517 kts 117°
2026-04-22 05:06 50.91904 3.17873 35287 ft 517 kts 117°
2026-04-22 05:07 50.88517 3.27917 35282 ft 517 kts 117°
2026-04-22 05:07 50.85145 3.37869 35289 ft 517 kts 117°
2026-04-22 05:08 50.81738 3.47880 35288 ft 516 kts 117°
2026-04-22 05:08 50.78324 3.57873 35292 ft 517 kts 117°
2026-04-22 05:09 50.74897 3.67863 35288 ft 517 kts 117°
2026-04-22 05:09 50.71466 3.77829 35286 ft 517 kts 117°
2026-04-22 05:10 50.68022 3.87791 35283 ft 517 kts 117°
2026-04-22 05:10 50.64574 3.97732 35288 ft 517 kts 118°
2026-04-22 05:11 50.61166 4.07685 35278 ft 516 kts 115°
2026-04-22 05:11 50.58094 4.17899 35291 ft 515 kts 114°
2026-04-22 05:12 50.55070 4.28120 35286 ft 515 kts 114°
2026-04-22 05:12 50.52020 4.38321 35295 ft 515 kts 114°
2026-04-22 05:13 50.48975 4.48402 35291 ft 514 kts 114°
2026-04-22 05:13 50.45897 4.58533 35296 ft 514 kts 114°
2026-04-22 05:14 50.42811 4.68651 35288 ft 513 kts 114°
2026-04-22 05:14 50.39724 4.78738 35285 ft 513 kts 114°
2026-04-22 05:15 50.36631 4.88802 35277 ft 513 kts 114°
2026-04-22 05:15 50.33529 4.98852 35278 ft 513 kts 115°
2026-04-22 05:16 50.30415 5.08903 35276 ft 513 kts 115°
2026-04-22 05:16 50.27292 5.18941 35276 ft 513 kts 115°
2026-04-22 05:17 50.24164 5.28955 35276 ft 513 kts 115°
2026-04-22 05:17 50.21026 5.38960 35279 ft 513 kts 115°
2026-04-22 05:18 50.16302 5.53945 35278 ft 513 kts 115°
2026-04-22 05:18 50.13142 5.63922 35273 ft 513 kts 115°
2026-04-22 05:19 50.09979 5.73872 35272 ft 512 kts 115°
2026-04-22 05:19 50.06686 5.83621 35268 ft 512 kts 121°
2026-04-22 05:20 50.02805 5.92916 35273 ft 512 kts 123°
2026-04-22 05:20 49.98877 6.02163 35262 ft 512 kts 122°
2026-04-22 05:21 49.94973 6.11415 35268 ft 512 kts 122°
2026-04-22 05:21 49.91078 6.20678 35254 ft 513 kts 122°
2026-04-22 05:22 49.87180 6.29933 35256 ft 513 kts 122°
2026-04-22 05:22 49.83269 6.39180 35251 ft 513 kts 122°
2026-04-22 05:23 49.79343 6.48425 35255 ft 513 kts 122°
2026-04-22 05:23 49.75408 6.57658 35249 ft 514 kts 122°
2026-04-22 05:24 49.71467 6.66872 35251 ft 514 kts 123°
2026-04-22 05:24 49.67515 6.76080 35239 ft 514 kts 123°
2026-04-22 05:25 49.63589 6.85196 35244 ft 514 kts 123°
2026-04-22 05:25 49.59619 6.94383 35238 ft 514 kts 123°
2026-04-22 05:26 49.55651 7.03535 35249 ft 514 kts 123°
2026-04-22 05:26 49.51672 7.12678 35243 ft 514 kts 123°
2026-04-22 05:27 49.47688 7.21804 35257 ft 514 kts 123°
2026-04-22 05:27 49.43694 7.30920 35257 ft 514 kts 123°
2026-04-22 05:28 49.39695 7.40016 35258 ft 514 kts 123°
2026-04-22 05:28 49.35678 7.49124 35257 ft 515 kts 123°
2026-04-22 05:29 49.31649 7.58226 35264 ft 515 kts 123°
2026-04-22 05:29 49.27612 7.67315 35257 ft 516 kts 123°
2026-04-22 05:30 49.23593 7.76334 35259 ft 516 kts 123°
2026-04-22 05:30 49.19547 7.85383 35254 ft 516 kts 123°
2026-04-22 05:31 49.15489 7.94430 35258 ft 516 kts 123°
2026-04-22 05:31 49.11419 8.03469 35246 ft 516 kts 124°
2026-04-22 05:32 49.07343 8.12496 35244 ft 516 kts 124°
2026-04-22 05:32 49.03265 8.21501 35238 ft 516 kts 124°
2026-04-22 05:33 48.99009 8.30304 35240 ft 516 kts 130°
2026-04-22 05:33 48.93887 8.37961 35240 ft 516 kts 137°
2026-04-22 05:34 48.88844 8.45717 35236 ft 517 kts 132°
2026-04-22 05:34 48.83996 8.53789 35238 ft 518 kts 132°
2026-04-22 05:35 48.79929 8.60475 35229 ft 519 kts 133°
2026-04-22 05:35 48.74171 8.69718 35209 ft 516 kts 132°
2026-04-22 05:36 48.69270 8.77504 35225 ft 507 kts 132°
2026-04-22 05:36 48.64407 8.85217 35228 ft 507 kts 132°
2026-04-22 05:37 48.60328 8.91677 35246 ft 507 kts 132°
2026-04-22 05:37 48.55478 8.99338 35234 ft 509 kts 132°
2026-04-22 05:38 48.50581 9.07050 35239 ft 509 kts 132°
2026-04-22 05:38 48.45663 9.14772 35226 ft 511 kts 132°
2026-04-22 05:39 48.40735 9.22487 35221 ft 511 kts 132°
2026-04-22 05:39 48.35792 9.30204 35214 ft 512 kts 133°
2026-04-22 05:40 48.30843 9.37908 35208 ft 512 kts 133°
2026-04-22 05:40 48.25881 9.45581 35215 ft 512 kts 134°
2026-04-22 05:41 48.20504 9.52524 35211 ft 513 kts 140°
2026-04-22 05:41 48.14912 9.59282 35212 ft 514 kts 140°
2026-04-22 05:42 48.09390 9.65987 35207 ft 514 kts 140°
2026-04-22 05:42 48.06229 9.69845 35210 ft 514 kts 140°
2026-04-22 05:43 48.00689 9.76613 35203 ft 514 kts 140°
2026-04-22 05:43 47.95143 9.83370 35197 ft 514 kts 140°
2026-04-22 05:44 47.89594 9.90106 35196 ft 515 kts 140°
2026-04-22 05:44 47.84034 9.96835 35197 ft 515 kts 140°
2026-04-22 05:45 47.78466 10.03555 35195 ft 516 kts 140°
2026-04-22 05:45 47.72886 10.10270 35192 ft 516 kts 140°
2026-04-22 05:46 47.67332 10.16935 35174 ft 517 kts 140°
2026-04-22 05:46 47.61736 10.23634 35171 ft 517 kts 140°
2026-04-22 05:47 47.56127 10.30307 35177 ft 517 kts 142°
2026-04-22 05:47 47.50168 10.36308 35180 ft 518 kts 147°
2026-04-22 05:48 47.44111 10.42096 35183 ft 519 kts 147°
2026-04-22 05:48 47.38068 10.47930 35185 ft 520 kts 147°
2026-04-22 05:49 47.32024 10.53792 35179 ft 520 kts 147°
2026-04-22 05:49 47.25984 10.59689 35177 ft 521 kts 145°
2026-04-22 05:50 47.20075 10.65906 35179 ft 522 kts 144°
2026-04-22 05:50 47.14198 10.72167 35180 ft 522 kts 144°
2026-04-22 05:51 47.08283 10.78373 35172 ft 523 kts 144°
2026-04-22 05:51 47.02340 10.84549 35168 ft 523 kts 145°
2026-04-22 05:52 46.96392 10.90715 35168 ft 524 kts 145°
2026-04-22 05:52 46.90433 10.96883 35146 ft 525 kts 145°
2026-04-22 05:53 46.84466 11.03042 35153 ft 525 kts 145°
2026-04-22 05:53 46.78867 11.09775 35133 ft 526 kts 134°
2026-04-22 05:54 46.73817 11.17512 35147 ft 527 kts 133°
2026-04-22 05:54 46.68769 11.25241 35156 ft 527 kts 133°
2026-04-22 05:55 46.63670 11.32941 35146 ft 527 kts 134°
2026-04-22 05:55 46.58564 11.40588 35158 ft 528 kts 134°
2026-04-22 05:56 46.53435 11.48242 35155 ft 528 kts 134°
2026-04-22 05:56 46.48308 11.55878 35164 ft 529 kts 134°
2026-04-22 05:57 46.43162 11.63524 35169 ft 530 kts 134°
2026-04-22 05:57 46.38008 11.71160 35170 ft 530 kts 134°
2026-04-22 05:58 46.32843 11.78790 35148 ft 531 kts 134°
2026-04-22 05:58 46.27668 11.86413 35163 ft 531 kts 135°
2026-04-22 05:59 46.22491 11.94016 35170 ft 531 kts 135°
2026-04-22 05:59 46.17343 12.01554 35170 ft 531 kts 135°
2026-04-22 06:00 46.12137 12.09157 35157 ft 532 kts 135°
2026-04-22 06:00 46.06920 12.16755 35161 ft 534 kts 135°
2026-04-22 06:01 46.01685 12.24357 35163 ft 535 kts 135°
2026-04-22 06:01 45.96439 12.31953 35170 ft 536 kts 135°
2026-04-22 06:02 45.91174 12.39555 35150 ft 536 kts 135°
2026-04-22 06:02 45.85939 12.47091 35168 ft 536 kts 135°
2026-04-22 06:03 45.80666 12.54661 35165 ft 536 kts 135°
2026-04-22 06:03 45.75389 12.62216 35161 ft 536 kts 135°
2026-04-22 06:04 45.70101 12.69765 35139 ft 536 kts 136°
2026-04-22 06:04 45.64810 12.77297 35137 ft 537 kts 136°
2026-04-22 06:05 45.59519 12.84808 35149 ft 537 kts 136°
2026-04-22 06:05 45.54216 12.92314 35144 ft 537 kts 136°
2026-04-22 06:06 45.48902 12.99815 35131 ft 537 kts 136°
2026-04-22 06:06 45.43585 13.07301 35134 ft 538 kts 136°
2026-04-22 06:07 45.38254 13.14785 35133 ft 538 kts 136°
2026-04-22 06:07 45.32913 13.22265 35136 ft 539 kts 136°
2026-04-22 06:08 45.27503 13.29633 35137 ft 539 kts 139°
2026-04-22 06:08 45.21907 13.36693 35137 ft 539 kts 140°
2026-04-22 06:09 45.16302 13.43674 35128 ft 539 kts 140°
2026-04-22 06:09 45.10681 13.50742 35127 ft 540 kts 140°
2026-04-22 06:10 45.05072 13.57834 35127 ft 540 kts 140°
2026-04-22 06:10 44.99466 13.64911 35125 ft 541 kts 140°
2026-04-22 06:11 44.93842 13.71987 35125 ft 541 kts 140°
2026-04-22 06:11 44.88210 13.79048 35128 ft 542 kts 141°
2026-04-22 06:12 44.82567 13.86102 35129 ft 542 kts 141°
2026-04-22 06:12 44.76950 13.93105 35125 ft 543 kts 141°
2026-04-22 06:13 44.71284 14.00149 35122 ft 543 kts 141°
2026-04-22 06:13 44.65619 14.07175 35117 ft 543 kts 141°
2026-04-22 06:14 44.59940 14.14198 35110 ft 544 kts 141°
2026-04-22 06:14 44.54256 14.21208 35102 ft 544 kts 141°
2026-04-22 06:15 44.48569 14.28204 35096 ft 544 kts 142°
2026-04-22 06:15 44.42878 14.35184 35090 ft 544 kts 142°
2026-04-22 06:16 44.37172 14.42164 35089 ft 545 kts 142°
2026-04-22 06:16 44.31463 14.49130 35088 ft 545 kts 142°
2026-04-22 06:17 44.25743 14.56090 35087 ft 546 kts 142°
2026-04-22 06:17 44.20041 14.63010 35085 ft 547 kts 142°
2026-04-22 06:18 44.14300 14.69958 35087 ft 548 kts 142°
2026-04-22 06:18 44.08533 14.76919 35080 ft 548 kts 142°
2026-04-22 06:19 44.02762 14.83867 35077 ft 549 kts 142°
2026-04-22 06:19 43.96984 14.90805 35081 ft 549 kts 142°
2026-04-22 06:20 43.91202 14.97728 35089 ft 549 kts 143°
2026-04-22 06:20 43.85412 15.04643 35066 ft 549 kts 143°
2026-04-22 06:21 43.79617 15.11545 35064 ft 549 kts 143°
2026-04-22 06:21 43.73819 15.18432 35070 ft 549 kts 143°
2026-04-22 06:22 43.68013 15.25311 35060 ft 550 kts 143°
2026-04-22 06:22 43.62204 15.32175 35056 ft 549 kts 143°
2026-04-22 06:23 43.56393 15.39024 35053 ft 549 kts 143°
2026-04-22 06:23 43.50612 15.45819 35054 ft 549 kts 143°
2026-04-22 06:24 43.41884 15.56044 35055 ft 549 kts 143°
2026-04-22 06:25 43.36056 15.62850 35046 ft 549 kts 143°
2026-04-22 06:25 43.30231 15.69634 35041 ft 549 kts 143°
2026-04-22 06:26 43.25388 15.75261 35038 ft 549 kts 143°
2026-04-22 06:26 43.18566 15.83168 35039 ft 549 kts 143°
2026-04-22 06:27 43.13714 15.88776 35033 ft 549 kts 143°
2026-04-22 06:27 43.07876 15.95509 35040 ft 548 kts 143°
2026-04-22 06:28 43.02045 16.02216 35031 ft 548 kts 143°
2026-04-22 06:28 42.96208 16.08913 35027 ft 547 kts 143°
2026-04-22 06:29 42.90388 16.15574 35024 ft 545 kts 144°
2026-04-22 06:29 42.84580 16.22204 35024 ft 544 kts 144°
2026-04-22 06:30 42.78779 16.28809 35021 ft 542 kts 144°
2026-04-22 06:30 42.73032 16.35335 35018 ft 541 kts 144°
2026-04-22 06:31 42.67255 16.41880 35021 ft 540 kts 144°
2026-04-22 06:31 42.61486 16.48398 35021 ft 539 kts 144°
2026-04-22 06:32 42.55718 16.54899 35020 ft 539 kts 144°
2026-04-22 06:32 42.49943 16.61391 35021 ft 540 kts 144°
2026-04-22 06:33 42.44157 16.67881 35020 ft 540 kts 144°
2026-04-22 06:33 42.38359 16.74368 35019 ft 541 kts 144°
2026-04-22 06:34 42.32548 16.80854 35016 ft 542 kts 144°
2026-04-22 06:34 42.26732 16.87330 35017 ft 542 kts 144°
2026-04-22 06:35 42.20909 16.93797 35019 ft 542 kts 144°
2026-04-22 06:35 42.15090 17.00244 35019 ft 541 kts 144°
2026-04-22 06:36 42.09268 17.06679 34995 ft 541 kts 144°
2026-04-22 06:36 42.03449 17.13096 35010 ft 540 kts 144°
2026-04-22 06:37 41.97646 17.19481 35001 ft 539 kts 145°
2026-04-22 06:37 41.91778 17.25693 34997 ft 534 kts 150°
2026-04-22 06:38 41.85509 17.30830 35004 ft 530 kts 155°
2026-04-22 06:38 41.79155 17.35841 34998 ft 530 kts 154°
2026-04-22 06:39 41.72818 17.40889 35000 ft 530 kts 154°
2026-04-22 06:39 41.66478 17.45974 35003 ft 531 kts 154°
2026-04-22 06:40 41.60144 17.51053 35000 ft 531 kts 154°
2026-04-22 06:40 41.53812 17.56115 35000 ft 531 kts 154°
2026-04-22 06:41 41.47470 17.61170 34998 ft 530 kts 154°
2026-04-22 06:41 41.41139 17.66203 35010 ft 530 kts 154°
2026-04-22 06:42 41.34796 17.71234 35009 ft 529 kts 154°
2026-04-22 06:42 41.28468 17.76242 35003 ft 529 kts 154°
2026-04-22 06:43 41.22146 17.81234 35001 ft 528 kts 154°
2026-04-22 06:43 41.15837 17.86205 35002 ft 527 kts 154°
2026-04-22 06:44 41.09571 17.91131 35002 ft 526 kts 154°
2026-04-22 06:44 41.03273 17.96070 34999 ft 525 kts 154°
2026-04-22 06:45 40.96987 18.00989 34998 ft 525 kts 154°
2026-04-22 06:45 40.90702 18.05896 35000 ft 524 kts 154°
2026-04-22 06:46 40.84424 18.10787 34993 ft 524 kts 154°
2026-04-22 06:46 40.78147 18.15667 34996 ft 523 kts 154°
2026-04-22 06:47 40.71872 18.20535 34990 ft 523 kts 154°
2026-04-22 06:47 40.65600 18.25391 34993 ft 523 kts 154°
2026-04-22 06:48 40.59361 18.30325 34989 ft 525 kts 150°
2026-04-22 06:48 40.53340 18.35784 34999 ft 526 kts 149°
2026-04-22 06:49 40.47338 18.41282 34986 ft 526 kts 149°
2026-04-22 06:49 40.41357 18.46715 34990 ft 526 kts 150°
2026-04-22 06:50 40.35327 18.52154 34991 ft 526 kts 150°
2026-04-22 06:50 40.29287 18.57584 34985 ft 526 kts 150°
2026-04-22 06:51 40.23241 18.63012 34985 ft 527 kts 150°
2026-04-22 06:51 40.17198 18.68426 34987 ft 527 kts 150°
2026-04-22 06:52 40.11147 18.73836 34981 ft 527 kts 150°
2026-04-22 06:52 40.05086 18.79243 34977 ft 527 kts 150°
2026-04-22 06:53 39.99028 18.84636 34974 ft 527 kts 150°
2026-04-22 06:53 39.92970 18.90017 34974 ft 527 kts 150°
2026-04-22 06:54 39.86905 18.95395 34973 ft 527 kts 150°
2026-04-22 06:54 39.80861 19.00808 34970 ft 528 kts 146°
2026-04-22 06:55 39.75080 19.06737 34962 ft 530 kts 144°
2026-04-22 06:55 39.69331 19.12736 34972 ft 530 kts 144°
2026-04-22 06:56 39.63610 19.18667 34968 ft 530 kts 145°
2026-04-22 06:56 39.57837 19.24607 34956 ft 530 kts 145°
2026-04-22 06:57 39.52055 19.30532 34956 ft 529 kts 145°
2026-04-22 06:57 39.46279 19.36438 34958 ft 529 kts 145°
2026-04-22 06:58 39.40493 19.42346 34949 ft 529 kts 145°
2026-04-22 06:58 39.34709 19.48239 34947 ft 529 kts 145°
2026-04-22 06:59 39.28927 19.54117 34954 ft 529 kts 145°
2026-04-22 06:59 39.23145 19.59982 34950 ft 529 kts 145°
2026-04-22 07:00 39.17356 19.65842 34957 ft 529 kts 145°
2026-04-22 07:00 39.11600 19.71656 34959 ft 529 kts 145°
2026-04-22 07:01 39.05804 19.77497 34961 ft 529 kts 145°
2026-04-22 07:01 39.00011 19.83324 34970 ft 528 kts 145°
2026-04-22 07:02 38.94218 19.89138 34977 ft 528 kts 146°
2026-04-22 07:02 38.88423 19.94941 34968 ft 528 kts 146°
2026-04-22 07:03 38.82629 20.00732 34970 ft 528 kts 146°
2026-04-22 07:03 38.76838 20.06506 34972 ft 527 kts 146°
2026-04-22 07:04 38.71049 20.12267 34977 ft 526 kts 146°
2026-04-22 07:04 38.65265 20.18011 34979 ft 525 kts 146°
2026-04-22 07:05 38.59491 20.23732 34979 ft 525 kts 146°
2026-04-22 07:05 38.53716 20.29442 34983 ft 525 kts 146°
2026-04-22 07:06 38.47942 20.35140 34980 ft 525 kts 146°
2026-04-22 07:06 38.42201 20.40794 34978 ft 524 kts 146°
2026-04-22 07:07 38.36423 20.46472 34997 ft 524 kts 146°
2026-04-22 07:07 38.30647 20.52136 34998 ft 525 kts 146°
2026-04-22 07:08 38.24860 20.57800 34982 ft 524 kts 146°
2026-04-22 07:08 38.19078 20.63448 34979 ft 524 kts 146°
2026-04-22 07:09 38.13301 20.69078 34990 ft 523 kts 146°
2026-04-22 07:09 38.07530 20.74691 34987 ft 522 kts 146°
2026-04-22 07:10 38.01756 20.80296 34993 ft 522 kts 146°
2026-04-22 07:10 37.95982 20.85888 34991 ft 522 kts 146°
2026-04-22 07:11 37.90198 20.91480 34993 ft 523 kts 146°
2026-04-22 07:11 37.84418 20.97057 34994 ft 523 kts 146°
2026-04-22 07:12 37.78630 21.02630 34988 ft 523 kts 146°
2026-04-22 07:12 37.72881 21.08154 34993 ft 522 kts 146°
2026-04-22 07:13 37.67089 21.13708 34991 ft 522 kts 146°
2026-04-22 07:13 37.62272 21.18319 34993 ft 522 kts 146°
2026-04-22 07:14 37.55512 21.24778 34993 ft 521 kts 146°
2026-04-22 07:14 37.50699 21.29366 34994 ft 521 kts 146°
2026-04-22 07:15 37.44924 21.34862 34996 ft 520 kts 146°
2026-04-22 07:15 37.39147 21.40349 34994 ft 520 kts 146°
2026-04-22 07:16 37.33371 21.45823 34993 ft 520 kts 146°
2026-04-22 07:16 37.27601 21.51282 34999 ft 519 kts 146°
2026-04-22 07:17 37.21864 21.56698 34998 ft 519 kts 146°
2026-04-22 07:17 37.16091 21.62138 35004 ft 519 kts 146°
2026-04-22 07:18 37.10323 21.67563 34997 ft 519 kts 146°
2026-04-22 07:18 37.04550 21.72982 34994 ft 519 kts 146°
2026-04-22 07:19 36.98772 21.78395 34996 ft 519 kts 146°
2026-04-22 07:19 36.92992 21.83799 34998 ft 518 kts 146°
2026-04-22 07:20 36.87221 21.89185 34994 ft 518 kts 146°
2026-04-22 07:20 36.81443 21.94566 34996 ft 517 kts 146°
2026-04-22 07:21 36.75673 21.99931 34997 ft 517 kts 146°
2026-04-22 07:21 36.69900 22.05286 34998 ft 517 kts 146°
2026-04-22 07:22 36.64163 22.10599 34998 ft 517 kts 146°
2026-04-22 07:22 36.58348 22.15973 34999 ft 517 kts 146°
2026-04-22 07:23 36.52573 22.21300 35001 ft 517 kts 146°
2026-04-22 07:23 36.46833 22.26585 35001 ft 517 kts 146°
2026-04-22 07:24 36.41052 22.31899 34994 ft 517 kts 147°
2026-04-22 07:24 36.35267 22.37205 34991 ft 517 kts 147°
2026-04-22 07:25 36.29479 22.42505 35001 ft 517 kts 147°
2026-04-22 07:25 36.23694 22.47791 34997 ft 516 kts 147°
2026-04-22 07:26 36.17918 22.53059 35001 ft 516 kts 147°
2026-04-22 07:26 36.12141 22.58319 35001 ft 515 kts 147°
2026-04-22 07:27 36.06374 22.63558 35005 ft 514 kts 147°
2026-04-22 07:27 36.00607 22.68789 35005 ft 513 kts 147°
2026-04-22 07:28 35.91974 22.76601 35005 ft 513 kts 147°
2026-04-22 07:28 35.86225 22.81792 35008 ft 512 kts 147°
2026-04-22 07:29 35.80466 22.86981 35007 ft 512 kts 147°
2026-04-22 07:29 35.74750 22.92122 35011 ft 512 kts 147°
2026-04-22 07:30 35.69002 22.97284 35016 ft 512 kts 147°
2026-04-22 07:30 35.66116 22.99871 35148 ft 514 kts 147°
2026-04-22 07:30 35.63229 23.02457 35453 ft 513 kts 147°
2026-04-22 07:31 35.60355 23.05030 35801 ft 510 kts 147°
2026-04-22 07:31 35.57486 23.07596 36134 ft 509 kts 147°
2026-04-22 07:31 35.54632 23.10147 36437 ft 507 kts 147°
2026-04-22 07:31 35.51777 23.12696 36691 ft 507 kts 147°
2026-04-22 07:32 35.48922 23.15241 36906 ft 508 kts 147°
2026-04-22 07:32 35.46056 23.17793 36975 ft 511 kts 147°
2026-04-22 07:32 35.40291 23.22921 37015 ft 511 kts 147°
2026-04-22 07:33 35.34572 23.28003 37015 ft 506 kts 147°
2026-04-22 07:33 35.28880 23.33051 37023 ft 504 kts 147°
2026-04-22 07:34 35.23200 23.38076 37029 ft 504 kts 147°
2026-04-22 07:34 35.17518 23.43095 37027 ft 504 kts 148°
2026-04-22 07:35 35.11823 23.48117 37030 ft 505 kts 148°
2026-04-22 07:35 35.06116 23.53141 37028 ft 506 kts 148°
2026-04-22 07:36 35.00396 23.58168 37032 ft 507 kts 148°
2026-04-22 07:36 34.94665 23.63195 37031 ft 508 kts 148°
2026-04-22 07:37 34.88924 23.68223 37032 ft 508 kts 148°
2026-04-22 07:37 34.83179 23.73246 37030 ft 509 kts 148°
2026-04-22 07:38 34.77461 23.78236 37031 ft 509 kts 148°
2026-04-22 07:38 34.71705 23.83250 37040 ft 509 kts 148°
2026-04-22 07:39 34.65952 23.88253 37037 ft 509 kts 148°
2026-04-22 07:39 34.60191 23.93255 37038 ft 509 kts 148°
2026-04-22 07:40 34.54422 23.98254 37036 ft 509 kts 148°
2026-04-22 07:40 34.48651 24.03246 37043 ft 509 kts 148°
2026-04-22 07:41 34.42876 24.08234 37042 ft 509 kts 148°
2026-04-22 07:41 34.37095 24.13217 37033 ft 510 kts 148°
2026-04-22 07:42 34.31357 24.18156 37051 ft 510 kts 148°
2026-04-22 07:42 34.25534 24.23159 37050 ft 510 kts 148°
2026-04-22 07:43 34.19741 24.28127 37045 ft 510 kts 148°
2026-04-22 07:43 34.13991 24.33051 37043 ft 510 kts 148°
2026-04-22 07:44 34.08190 24.38011 37041 ft 510 kts 148°
2026-04-22 07:44 34.02390 24.42961 37047 ft 510 kts 148°
2026-04-22 07:45 33.96810 24.48278 37047 ft 514 kts 141°
2026-04-22 07:45 33.91496 24.54051 37046 ft 514 kts 141°
2026-04-22 07:46 33.86192 24.59829 37047 ft 514 kts 141°
2026-04-22 07:46 33.80861 24.65577 37045 ft 514 kts 141°
2026-04-22 07:47 33.75517 24.71300 37049 ft 514 kts 141°
2026-04-22 07:47 33.70167 24.77015 37048 ft 515 kts 142°
2026-04-22 07:48 33.64848 24.82690 37050 ft 515 kts 142°
2026-04-22 07:48 33.59492 24.88396 37051 ft 515 kts 142°
2026-04-22 07:49 33.54133 24.94096 37050 ft 515 kts 142°
2026-04-22 07:49 33.48772 24.99788 37057 ft 515 kts 142°
2026-04-22 07:50 33.43402 25.05480 37056 ft 515 kts 142°
2026-04-22 07:50 33.38029 25.11165 37056 ft 515 kts 142°
2026-04-22 07:51 33.32656 25.16840 37057 ft 516 kts 142°
2026-04-22 07:51 33.27274 25.22515 37055 ft 516 kts 142°
2026-04-22 07:52 33.21891 25.28182 37055 ft 516 kts 142°
2026-04-22 07:52 33.16502 25.33845 37058 ft 516 kts 142°
2026-04-22 07:53 33.11105 25.39508 37058 ft 516 kts 142°
2026-04-22 07:53 33.05705 25.45163 37069 ft 517 kts 142°
2026-04-22 07:54 33.00300 25.50814 37073 ft 517 kts 142°
2026-04-22 07:54 32.94891 25.56460 37056 ft 517 kts 142°
2026-04-22 07:55 32.89476 25.62102 37059 ft 518 kts 142°
2026-04-22 07:55 32.84082 25.67713 37072 ft 518 kts 142°
2026-04-22 07:56 32.78653 25.73351 37050 ft 518 kts 142°
2026-04-22 07:56 32.73212 25.78992 37069 ft 519 kts 142°
2026-04-22 07:57 32.67774 25.84621 37069 ft 519 kts 143°
2026-04-22 07:57 32.62329 25.90247 37064 ft 519 kts 143°
2026-04-22 07:58 32.56885 25.95863 37067 ft 519 kts 143°
2026-04-22 07:58 32.51435 26.01476 37065 ft 519 kts 143°
2026-04-22 07:59 32.45983 26.07081 37068 ft 519 kts 143°
2026-04-22 07:59 32.40531 26.12677 37066 ft 519 kts 143°
2026-04-22 08:00 32.35110 26.18231 37064 ft 519 kts 143°
2026-04-22 08:00 32.29635 26.23831 37076 ft 524 kts 143°
2026-04-22 08:01 32.24063 26.29517 37079 ft 533 kts 143°
2026-04-22 08:01 32.18412 26.35278 37083 ft 540 kts 143°
2026-04-22 08:02 32.12687 26.41105 37078 ft 546 kts 143°
2026-04-22 08:02 32.07845 26.46028 37075 ft 549 kts 143°
2026-04-22 08:03 32.02041 26.51918 37067 ft 552 kts 143°
2026-04-22 08:03 31.96252 26.57784 37068 ft 552 kts 143°
2026-04-22 08:04 31.90435 26.63667 37060 ft 551 kts 143°
2026-04-22 08:04 31.84629 26.69527 37067 ft 549 kts 143°
2026-04-22 08:05 31.78844 26.75357 37056 ft 547 kts 143°
2026-04-22 08:05 31.73063 26.81171 37065 ft 546 kts 143°
2026-04-22 08:06 31.67299 26.86959 37066 ft 545 kts 143°
2026-04-22 08:06 31.61542 26.92731 37068 ft 544 kts 143°
2026-04-22 08:07 31.55783 26.98494 37070 ft 544 kts 143°
2026-04-22 08:07 31.50026 27.04246 37071 ft 544 kts 143°
2026-04-22 08:08 31.44269 27.09990 37074 ft 544 kts 143°
2026-04-22 08:08 31.38527 27.15709 37119 ft 547 kts 143°
2026-04-22 08:09 31.32886 27.21699 37257 ft 551 kts 136°
2026-04-22 08:09 31.28068 27.28708 37417 ft 556 kts 126°
2026-04-22 08:10 31.23816 27.36246 37555 ft 556 kts 126°
2026-04-22 08:10 31.19524 27.43771 37697 ft 556 kts 127°
2026-04-22 08:11 31.15172 27.51253 37844 ft 556 kts 127°
2026-04-22 08:11 31.10810 27.58699 37974 ft 556 kts 127°
2026-04-22 08:12 31.06382 27.66105 38102 ft 556 kts 128°
2026-04-22 08:12 31.01943 27.73495 38213 ft 556 kts 128°
2026-04-22 08:13 30.97510 27.80886 38318 ft 557 kts 128°
2026-04-22 08:13 30.93072 27.88285 38445 ft 557 kts 128°
2026-04-22 08:14 30.88633 27.95674 38553 ft 557 kts 128°
2026-04-22 08:14 30.84218 28.03008 38656 ft 557 kts 128°
2026-04-22 08:15 30.79764 28.10392 38718 ft 558 kts 128°
2026-04-22 08:15 30.75301 28.17776 38811 ft 557 kts 128°
2026-04-22 08:16 30.70842 28.25139 38906 ft 557 kts 129°
2026-04-22 08:16 30.66383 28.32492 39004 ft 556 kts 129°
2026-04-22 08:17 30.61928 28.39821 39065 ft 556 kts 129°
2026-04-22 08:17 30.57456 28.47165 39069 ft 558 kts 129°
2026-04-22 08:18 30.52974 28.54512 39070 ft 559 kts 129°
2026-04-22 08:18 30.48507 28.61823 39069 ft 559 kts 129°
2026-04-22 08:19 30.44002 28.69181 39079 ft 560 kts 129°
2026-04-22 08:19 30.39492 28.76535 39073 ft 560 kts 129°
2026-04-22 08:20 30.34976 28.83885 39089 ft 560 kts 129°
2026-04-22 08:20 30.30458 28.91225 39075 ft 560 kts 130°
2026-04-22 08:21 30.25942 28.98548 39063 ft 559 kts 130°
2026-04-22 08:21 30.21415 29.05879 39072 ft 559 kts 130°
2026-04-22 08:22 30.16890 29.13187 39072 ft 559 kts 130°
2026-04-22 08:22 30.12357 29.20488 39071 ft 559 kts 130°
2026-04-22 08:23 30.07884 29.27839 39073 ft 560 kts 129°
2026-04-22 08:23 30.03449 29.35231 39067 ft 560 kts 129°
2026-04-22 08:24 29.99036 29.42564 39067 ft 560 kts 129°
2026-04-22 08:24 29.94573 29.49938 39066 ft 561 kts 129°
2026-04-22 08:25 29.90096 29.57312 39062 ft 561 kts 130°
2026-04-22 08:25 29.85615 29.64679 39064 ft 562 kts 130°
2026-04-22 08:26 29.81127 29.72049 39066 ft 562 kts 130°
2026-04-22 08:26 29.76627 29.79424 39061 ft 563 kts 130°
2026-04-22 08:27 29.72126 29.86789 39053 ft 563 kts 130°
2026-04-22 08:27 29.67614 29.94157 39049 ft 564 kts 130°
2026-04-22 08:28 29.63095 30.01524 39053 ft 564 kts 130°
2026-04-22 08:28 29.58564 30.08897 39049 ft 564 kts 130°
2026-04-22 08:29 29.54033 30.16258 39046 ft 564 kts 130°
2026-04-22 08:29 29.49499 30.23611 39042 ft 565 kts 130°
2026-04-22 08:30 29.44957 30.30966 39045 ft 565 kts 130°
2026-04-22 08:30 29.40391 30.38286 39040 ft 563 kts 133°
2026-04-22 08:31 29.35244 30.44948 39049 ft 555 kts 140°
2026-04-22 08:32 29.27165 30.54381 39038 ft 554 kts 141°
2026-04-22 08:32 29.21800 30.60709 39040 ft 554 kts 140°
2026-04-22 08:33 29.16448 30.67066 39041 ft 554 kts 140°
2026-04-22 08:33 29.11101 30.73415 39037 ft 554 kts 140°
2026-04-22 08:34 29.05749 30.79751 39036 ft 554 kts 140°
2026-04-22 08:34 29.00385 30.86087 39037 ft 554 kts 141°
2026-04-22 08:35 28.95025 30.92409 39039 ft 554 kts 141°
2026-04-22 08:35 28.89661 30.98726 39029 ft 554 kts 141°
2026-04-22 08:36 28.84297 31.05032 39035 ft 554 kts 141°
2026-04-22 08:36 28.78923 31.11342 39030 ft 554 kts 141°
2026-04-22 08:37 28.73583 31.17604 39027 ft 554 kts 141°
2026-04-22 08:37 28.68228 31.23907 39019 ft 555 kts 140°
2026-04-22 08:38 28.63028 31.30430 39013 ft 556 kts 138°
2026-04-22 08:38 28.57897 31.37008 39015 ft 556 kts 138°
2026-04-22 08:39 28.52731 31.43558 39013 ft 556 kts 139°
2026-04-22 08:39 28.47608 31.50150 39013 ft 559 kts 134°
2026-04-22 08:40 28.43289 31.57592 39016 ft 568 kts 125°
2026-04-22 08:40 28.39369 31.65385 39004 ft 569 kts 125°
2026-04-22 08:41 28.35407 31.73181 39003 ft 569 kts 125°
2026-04-22 08:41 28.31403 31.80934 39006 ft 570 kts 126°
2026-04-22 08:42 28.27373 31.88681 39014 ft 570 kts 126°
2026-04-22 08:42 28.23335 31.96437 38987 ft 571 kts 126°
2026-04-22 08:43 28.19317 32.04150 38988 ft 572 kts 126°
2026-04-22 08:43 28.15270 32.11910 38993 ft 572 kts 126°
2026-04-22 08:44 28.11213 32.19676 38986 ft 573 kts 126°
2026-04-22 08:44 28.07151 32.27433 38974 ft 573 kts 126°
2026-04-22 08:45 28.03083 32.35188 38974 ft 573 kts 126°
2026-04-22 08:45 27.99008 32.42943 38972 ft 573 kts 126°
2026-04-22 08:46 27.94929 32.50692 38969 ft 573 kts 126°
2026-04-22 08:46 27.90844 32.58435 38967 ft 574 kts 126°
2026-04-22 08:47 27.86751 32.66182 38969 ft 574 kts 126°
2026-04-22 08:47 27.82648 32.73932 38971 ft 575 kts 127°
2026-04-22 08:48 27.78536 32.81686 38970 ft 575 kts 127°
2026-04-22 08:48 27.74442 32.89393 38950 ft 576 kts 127°
2026-04-22 08:49 27.70315 32.97148 38966 ft 576 kts 127°
2026-04-22 08:49 27.66189 33.04887 38969 ft 576 kts 127°
2026-04-22 08:50 27.62055 33.12627 38972 ft 576 kts 127°
2026-04-22 08:50 27.58617 33.19054 38973 ft 576 kts 127°
2026-04-22 08:51 27.53775 33.28088 38975 ft 576 kts 127°
2026-04-22 08:51 27.50323 33.34516 38976 ft 577 kts 127°
2026-04-22 08:52 27.46162 33.42254 38976 ft 577 kts 127°
2026-04-22 08:52 27.42000 33.49979 38984 ft 578 kts 127°
2026-04-22 08:53 27.37826 33.57714 38983 ft 578 kts 127°
2026-04-22 08:53 27.33637 33.65460 38972 ft 579 kts 127°
2026-04-22 08:54 27.29449 33.73193 38964 ft 579 kts 127°
2026-04-22 08:54 27.25255 33.80923 38965 ft 579 kts 127°
2026-04-22 08:55 27.21056 33.88649 38964 ft 579 kts 127°
2026-04-22 08:55 27.16872 33.96334 38965 ft 579 kts 128°
2026-04-22 08:56 27.12665 34.04048 38970 ft 579 kts 128°
2026-04-22 08:56 27.08452 34.11760 38964 ft 580 kts 128°
2026-04-22 08:57 27.04236 34.19466 38968 ft 580 kts 127°
2026-04-22 08:57 27.00508 34.27549 38943 ft 589 kts 117°
2026-04-22 08:58 26.97503 34.36103 38951 ft 590 kts 116°
2026-04-22 08:58 26.94522 34.44670 38942 ft 590 kts 116°
2026-04-22 08:59 26.91467 34.53216 38931 ft 590 kts 117°
2026-04-22 08:59 26.88382 34.61738 38924 ft 590 kts 117°
2026-04-22 09:00 26.85295 34.70258 38921 ft 591 kts 117°
2026-04-22 09:00 26.82207 34.78785 38918 ft 591 kts 117°
2026-04-22 09:01 26.79111 34.87318 38908 ft 591 kts 117°
2026-04-22 09:01 26.76006 34.95852 38902 ft 592 kts 117°
2026-04-22 09:02 26.72908 35.04312 38908 ft 592 kts 117°
2026-04-22 09:02 26.69777 35.12836 38893 ft 592 kts 117°
2026-04-22 09:03 26.66646 35.21352 38895 ft 593 kts 117°
2026-04-22 09:03 26.63508 35.29874 38893 ft 593 kts 117°
2026-04-22 09:04 26.60364 35.38391 38887 ft 593 kts 117°
2026-04-22 09:04 26.57213 35.46914 38881 ft 593 kts 117°
2026-04-22 09:05 26.54021 35.55405 38880 ft 593 kts 118°
2026-04-22 09:05 26.50769 35.63858 38880 ft 593 kts 118°
2026-04-22 09:06 26.47512 35.72310 38880 ft 593 kts 118°
2026-04-22 09:06 26.44265 35.80760 38875 ft 593 kts 118°
2026-04-22 09:07 26.41015 35.89213 38879 ft 593 kts 118°
2026-04-22 09:07 26.37760 35.97660 38871 ft 593 kts 118°
2026-04-22 09:08 26.34496 36.06107 38875 ft 592 kts 118°
2026-04-22 09:08 26.31254 36.14481 38871 ft 592 kts 118°
2026-04-22 09:09 26.27963 36.22964 38862 ft 592 kts 118°
2026-04-22 09:09 26.24711 36.31328 38859 ft 592 kts 118°
2026-04-22 09:10 26.21411 36.39802 38855 ft 592 kts 118°
2026-04-22 09:10 26.18142 36.48153 38853 ft 591 kts 120°
2026-04-22 09:11 26.14375 36.56228 38862 ft 587 kts 125°
2026-04-22 09:11 26.10393 36.64156 38858 ft 587 kts 125°
2026-04-22 09:12 26.06425 36.72099 38859 ft 588 kts 125°
2026-04-22 09:12 26.02486 36.80075 38864 ft 588 kts 124°
2026-04-22 09:13 25.98554 36.88048 38860 ft 588 kts 125°
2026-04-22 09:13 25.94613 36.96014 38856 ft 589 kts 125°
2026-04-22 09:14 25.90658 37.03984 38850 ft 589 kts 125°
2026-04-22 09:14 25.86703 37.11942 38843 ft 588 kts 125°
2026-04-22 09:15 25.82747 37.19889 38846 ft 588 kts 125°
2026-04-22 09:15 25.78785 37.27838 38840 ft 588 kts 125°
2026-04-22 09:16 25.74830 37.35777 38846 ft 588 kts 125°
2026-04-22 09:16 25.70876 37.43710 38857 ft 587 kts 125°
2026-04-22 09:17 25.66942 37.51587 38865 ft 588 kts 125°
2026-04-22 09:17 25.62976 37.59511 38860 ft 588 kts 125°
2026-04-22 09:18 25.58999 37.67445 38862 ft 589 kts 125°
2026-04-22 09:18 25.55016 37.75377 38859 ft 589 kts 125°
2026-04-22 09:19 25.51032 37.83299 38853 ft 588 kts 125°
2026-04-22 09:19 25.47049 37.91204 38857 ft 588 kts 126°
2026-04-22 09:20 25.43062 37.99101 38858 ft 588 kts 126°
2026-04-22 09:20 25.39068 38.06999 38859 ft 588 kts 126°
2026-04-22 09:21 25.35065 38.14904 38874 ft 590 kts 126°
2026-04-22 09:21 25.31075 38.22768 38849 ft 590 kts 126°
2026-04-22 09:22 25.27060 38.30668 38852 ft 590 kts 126°
2026-04-22 09:22 25.23042 38.38564 38871 ft 589 kts 126°
2026-04-22 09:23 25.19018 38.46458 38867 ft 589 kts 126°
2026-04-22 09:23 25.14991 38.54343 38871 ft 589 kts 126°
2026-04-22 09:24 25.10962 38.62221 38879 ft 590 kts 126°
2026-04-22 09:24 25.06928 38.70100 38891 ft 590 kts 126°
2026-04-22 09:25 25.02889 38.77979 38896 ft 590 kts 126°
2026-04-22 09:25 24.98847 38.85851 38900 ft 591 kts 126°
2026-04-22 09:26 24.94785 38.93741 38906 ft 591 kts 126°
2026-04-22 09:26 24.90704 39.01602 38912 ft 591 kts 126°
2026-04-22 09:27 24.86622 39.09446 38923 ft 591 kts 126°
2026-04-22 09:27 24.82531 39.17311 38917 ft 591 kts 126°
2026-04-22 09:28 24.78440 39.25160 38922 ft 591 kts 126°
2026-04-22 09:28 24.74349 39.33001 38926 ft 591 kts 126°
2026-04-22 09:29 24.70252 39.40843 38941 ft 591 kts 126°
2026-04-22 09:29 24.66151 39.48680 38943 ft 592 kts 126°
2026-04-22 09:30 24.62037 39.56531 38956 ft 592 kts 126°
2026-04-22 09:30 24.57959 39.64395 38962 ft 594 kts 123°
2026-04-22 09:31 24.54956 39.72866 38969 ft 604 kts 109°
2026-04-22 09:31 24.53387 39.81950 38967 ft 609 kts 98°
2026-04-22 09:32 24.52608 39.91220 38961 ft 610 kts 97°
2026-04-22 09:32 24.51824 40.00498 38954 ft 610 kts 97°
2026-04-22 09:33 24.50942 40.09756 38942 ft 610 kts 98°
2026-04-22 09:33 24.50019 40.19026 38947 ft 610 kts 98°
2026-04-22 09:34 24.49100 40.28282 38941 ft 610 kts 98°
2026-04-22 09:34 24.48185 40.37538 38952 ft 610 kts 98°
2026-04-22 09:35 24.46802 40.51433 38939 ft 610 kts 98°
2026-04-22 09:35 24.45872 40.60692 38950 ft 610 kts 98°
2026-04-22 09:36 24.44941 40.69947 38942 ft 611 kts 98°
2026-04-22 09:36 24.44016 40.79147 38944 ft 611 kts 98°
2026-04-22 09:37 24.43079 40.88413 38945 ft 611 kts 98°
2026-04-22 09:37 24.42135 40.97680 38951 ft 611 kts 98°
2026-04-22 09:38 24.41185 41.06947 38958 ft 611 kts 98°
2026-04-22 09:38 24.40217 41.16216 38957 ft 611 kts 98°
2026-04-22 09:39 24.39235 41.25478 38965 ft 611 kts 98°
2026-04-22 09:39 24.38249 41.34742 38965 ft 611 kts 98°
2026-04-22 09:40 24.37420 41.42513 38957 ft 611 kts 98°
2026-04-22 09:40 24.36434 41.51701 38970 ft 611 kts 98°
2026-04-22 09:41 24.35436 41.60954 38962 ft 611 kts 98°
2026-04-22 09:41 24.34433 41.70200 38967 ft 610 kts 98°
2026-04-22 09:42 24.33417 41.79428 38967 ft 610 kts 100°
2026-04-22 09:42 24.31668 41.88485 38965 ft 605 kts 110°
2026-04-22 09:43 24.29263 41.97317 38961 ft 605 kts 110°
2026-04-22 09:43 24.26844 42.06149 38956 ft 605 kts 110°
2026-04-22 09:44 24.24485 42.15008 38951 ft 606 kts 110°
2026-04-22 09:44 24.22150 42.23868 38952 ft 606 kts 110°
2026-04-22 09:45 24.19799 42.32751 38947 ft 607 kts 110°
2026-04-22 09:45 24.17440 42.41611 38949 ft 607 kts 110°
2026-04-22 09:46 24.15069 42.50486 38945 ft 607 kts 110°
2026-04-22 09:46 24.12696 42.59351 38949 ft 607 kts 110°
2026-04-22 09:47 24.10314 42.68228 38947 ft 607 kts 110°
2026-04-22 09:47 24.07932 42.77084 38954 ft 607 kts 110°
2026-04-22 09:48 24.05542 42.85952 38946 ft 607 kts 110°
2026-04-22 09:48 24.03144 42.94824 38952 ft 607 kts 110°
2026-04-22 09:49 24.00751 43.03669 38947 ft 607 kts 110°
2026-04-22 09:49 23.98350 43.12528 38954 ft 607 kts 110°
2026-04-22 09:50 23.95961 43.21318 38955 ft 607 kts 110°
2026-04-22 09:50 23.93551 43.30165 38953 ft 606 kts 110°
2026-04-22 09:51 23.91140 43.38992 38949 ft 606 kts 110°
2026-04-22 09:51 23.88722 43.47823 38940 ft 606 kts 110°
2026-04-22 09:52 23.86297 43.56660 38934 ft 606 kts 110°
2026-04-22 09:52 23.83871 43.65477 38931 ft 606 kts 110°
2026-04-22 09:53 23.81442 43.74289 38919 ft 605 kts 110°
2026-04-22 09:53 23.79027 43.83025 38906 ft 605 kts 110°
2026-04-22 09:54 23.77108 43.91987 38910 ft 608 kts 100°
2026-04-22 09:54 23.76352 44.01186 38910 ft 608 kts 95°
2026-04-22 09:55 23.75776 44.10379 38901 ft 608 kts 95°
2026-04-22 09:55 23.75128 44.19588 38903 ft 608 kts 96°
2026-04-22 09:56 23.74425 44.28775 38905 ft 607 kts 96°
2026-04-22 09:56 23.73712 44.37947 38912 ft 607 kts 96°
2026-04-22 09:57 23.73001 44.47147 38907 ft 607 kts 96°
2026-04-22 09:57 23.72291 44.56323 38907 ft 607 kts 96°
2026-04-22 09:58 23.71574 44.65503 38909 ft 607 kts 96°
2026-04-22 09:58 23.70852 44.74669 38909 ft 606 kts 96°
2026-04-22 09:59 23.70129 44.83776 38914 ft 606 kts 96°
2026-04-22 09:59 23.69391 44.92992 38914 ft 605 kts 96°
2026-04-22 10:00 23.68651 45.02132 38891 ft 605 kts 96°
2026-04-22 10:00 23.67906 45.11278 38893 ft 605 kts 96°
2026-04-22 10:01 23.67157 45.20413 38896 ft 605 kts 96°
2026-04-22 10:01 23.66404 45.29543 38891 ft 604 kts 96°
2026-04-22 10:02 23.65648 45.38678 38897 ft 604 kts 96°
2026-04-22 10:02 23.64888 45.47800 38886 ft 604 kts 96°
2026-04-22 10:03 23.64125 45.56878 38885 ft 604 kts 96°
2026-04-22 10:03 23.63356 45.65990 38887 ft 603 kts 96°
2026-04-22 10:04 23.62581 45.75092 38889 ft 603 kts 96°
2026-04-22 10:04 23.61802 45.84199 38875 ft 603 kts 96°
2026-04-22 10:05 23.61020 45.93290 38887 ft 602 kts 96°
2026-04-22 10:05 23.60231 46.02387 38886 ft 602 kts 96°
2026-04-22 10:06 23.59438 46.11473 38893 ft 602 kts 96°
2026-04-22 10:06 23.58639 46.20567 38893 ft 602 kts 96°
2026-04-22 10:07 23.57835 46.29656 38894 ft 602 kts 96°
2026-04-22 10:07 23.57025 46.38741 38898 ft 602 kts 96°
2026-04-22 10:08 23.56211 46.47830 38906 ft 602 kts 96°
2026-04-22 10:08 23.55397 46.56846 38904 ft 601 kts 96°
2026-04-22 10:09 23.54561 46.65913 38898 ft 601 kts 96°
2026-04-22 10:09 23.53720 46.74970 38903 ft 601 kts 96°
2026-04-22 10:10 23.52874 46.84024 38899 ft 602 kts 96°
2026-04-22 10:10 23.52021 46.93118 38888 ft 602 kts 96°
2026-04-22 10:11 23.51166 47.02190 38884 ft 602 kts 96°
2026-04-22 10:11 23.50303 47.11278 38874 ft 603 kts 96°
2026-04-22 10:12 23.49435 47.20363 38875 ft 603 kts 96°
2026-04-22 10:12 23.48561 47.29453 38867 ft 603 kts 96°
2026-04-22 10:13 23.47688 47.38474 38863 ft 602 kts 96°
2026-04-22 10:13 23.46806 47.47544 38860 ft 602 kts 96°
2026-04-22 10:14 23.45921 47.56610 38860 ft 602 kts 96°
2026-04-22 10:14 23.45110 47.65672 38854 ft 601 kts 92°
2026-04-22 10:15 23.45231 47.74753 38854 ft 599 kts 86°
2026-04-22 10:15 23.45620 47.83814 38849 ft 599 kts 85°
2026-04-22 10:16 23.45972 47.92875 38845 ft 599 kts 86°
2026-04-22 10:16 23.46263 48.01939 38837 ft 599 kts 86°
2026-04-22 10:17 23.46529 48.11001 38836 ft 598 kts 86°
2026-04-22 10:17 23.46792 48.20060 38829 ft 598 kts 86°
2026-04-22 10:18 23.47057 48.29106 38828 ft 598 kts 86°
2026-04-22 10:18 23.47318 48.38157 38822 ft 598 kts 86°
2026-04-22 10:19 23.47574 48.47207 38826 ft 598 kts 86°
2026-04-22 10:19 23.47823 48.56207 38821 ft 598 kts 86°
2026-04-22 10:20 23.48068 48.65257 38820 ft 598 kts 86°
2026-04-22 10:20 23.48307 48.74314 38815 ft 598 kts 86°
2026-04-22 10:21 23.48541 48.83367 38815 ft 598 kts 86°
2026-04-22 10:21 23.48770 48.92417 38813 ft 598 kts 86°
2026-04-22 10:22 23.48995 49.01478 38808 ft 598 kts 86°
2026-04-22 10:22 23.49213 49.10529 38803 ft 598 kts 86°
2026-04-22 10:23 23.49426 49.19578 38801 ft 597 kts 86°
2026-04-22 10:23 23.49635 49.28628 38800 ft 598 kts 86°
2026-04-22 10:24 23.49837 49.37662 38796 ft 597 kts 86°
2026-04-22 10:24 23.50035 49.46729 38798 ft 597 kts 86°
2026-04-22 10:25 23.50226 49.55712 38801 ft 597 kts 86°
2026-04-22 10:25 23.50383 49.63290 38797 ft 597 kts 86°
2026-04-22 10:26 23.50595 49.73816 38799 ft 597 kts 86°
2026-04-22 10:26 23.50772 49.82858 38796 ft 597 kts 86°
2026-04-22 10:27 23.50943 49.91888 38800 ft 596 kts 86°
2026-04-22 10:27 23.51081 49.99402 38798 ft 596 kts 86°
2026-04-22 10:28 23.51243 50.08447 38799 ft 596 kts 86°
2026-04-22 10:28 23.51400 50.17477 38799 ft 596 kts 86°
2026-04-22 10:29 23.51551 50.26495 38803 ft 596 kts 86°
2026-04-22 10:29 23.51696 50.35516 38803 ft 595 kts 86°
2026-04-22 10:30 23.51919 50.44527 38802 ft 593 kts 82°
2026-04-22 10:30 23.53222 50.53354 38801 ft 586 kts 71°
2026-04-22 10:31 23.55637 50.61780 38805 ft 581 kts 66°
2026-04-22 10:31 23.58208 50.70132 38801 ft 581 kts 66°
2026-04-22 10:32 23.60731 50.78504 38800 ft 581 kts 66°
2026-04-22 10:32 23.63210 50.86897 38801 ft 581 kts 67°
2026-04-22 10:33 23.65674 50.95300 38804 ft 581 kts 67°
2026-04-22 10:33 23.68118 51.03638 38800 ft 581 kts 67°
2026-04-22 10:34 23.70578 51.12031 38804 ft 581 kts 67°
2026-04-22 10:34 23.73033 51.20422 38810 ft 581 kts 67°
2026-04-22 10:35 23.75484 51.28816 38806 ft 580 kts 67°
2026-04-22 10:35 23.77929 51.37212 38836 ft 581 kts 68°
2026-04-22 10:36 23.80374 51.45628 38828 ft 581 kts 68°
2026-04-22 10:36 23.82814 51.54045 38815 ft 581 kts 68°
2026-04-22 10:37 23.86463 51.66669 38815 ft 581 kts 68°
2026-04-22 10:38 23.88891 51.75094 38820 ft 581 kts 68°
2026-04-22 10:38 23.91314 51.83518 38818 ft 581 kts 68°
2026-04-22 10:39 23.93729 51.91933 38814 ft 580 kts 68°
2026-04-22 10:39 23.96139 52.00349 38805 ft 580 kts 68°
2026-04-22 10:40 23.98542 52.08765 38805 ft 579 kts 68°
2026-04-22 10:40 24.00938 52.17172 38807 ft 579 kts 68°
2026-04-22 10:41 24.03329 52.25577 38803 ft 578 kts 68°
2026-04-22 10:41 24.05712 52.33980 38802 ft 578 kts 68°
2026-04-22 10:42 24.08091 52.42381 38800 ft 578 kts 68°
2026-04-22 10:42 24.10459 52.50768 38803 ft 577 kts 68°
2026-04-22 10:43 24.12824 52.59162 38802 ft 577 kts 68°
2026-04-22 10:43 24.15184 52.67559 38805 ft 576 kts 68°
2026-04-22 10:44 24.17535 52.75942 38804 ft 576 kts 68°
2026-04-22 10:44 24.19880 52.84320 38805 ft 575 kts 68°
2026-04-22 10:45 24.22217 52.92693 38799 ft 575 kts 68°
2026-04-22 10:45 24.24534 53.01012 38800 ft 574 kts 68°
2026-04-22 10:46 24.26860 53.09386 38799 ft 574 kts 68°
2026-04-22 10:46 24.29181 53.17756 38799 ft 574 kts 69°
2026-04-22 10:47 24.31493 53.26116 38792 ft 573 kts 69°
2026-04-22 10:47 24.33803 53.34489 38792 ft 573 kts 69°
2026-04-22 10:48 24.36106 53.42854 38794 ft 573 kts 69°
2026-04-22 10:48 24.38403 53.51219 38794 ft 573 kts 69°
2026-04-22 10:49 24.40694 53.59583 38788 ft 573 kts 69°
2026-04-22 10:49 24.42982 53.67953 38784 ft 573 kts 69°
2026-04-22 10:50 24.45266 53.76327 38784 ft 573 kts 69°
2026-04-22 10:50 24.47546 53.84712 38782 ft 573 kts 69°
2026-04-22 10:51 24.49804 53.93032 38778 ft 573 kts 69°
2026-04-22 10:51 24.52074 54.01416 38780 ft 573 kts 69°
2026-04-22 10:52 24.54331 54.09778 38580 ft 567 kts 69°
2026-04-22 10:52 24.55444 54.13914 37980 ft 562 kts 69°
2026-04-22 10:52 24.56550 54.18025 37272 ft 559 kts 69°
2026-04-22 10:52 24.57648 54.22108 36565 ft 556 kts 69°
2026-04-22 10:53 24.58738 54.26163 35962 ft 551 kts 70°
2026-04-22 10:53 24.59814 54.30178 35459 ft 545 kts 70°
2026-04-22 10:53 24.60879 54.34152 34998 ft 538 kts 70°
2026-04-22 10:53 24.61928 54.38075 34539 ft 532 kts 70°
2026-04-22 10:54 24.62967 54.41961 34073 ft 527 kts 70°
2026-04-22 10:54 24.63995 54.45809 33584 ft 522 kts 70°
2026-04-22 10:54 24.65013 54.49622 33067 ft 518 kts 70°
2026-04-22 10:54 24.66023 54.53408 32573 ft 513 kts 70°
2026-04-22 10:55 24.67019 54.57150 32084 ft 508 kts 70°
2026-04-22 10:55 24.68006 54.60862 31586 ft 503 kts 71°
2026-04-22 10:55 24.68981 54.64530 31126 ft 499 kts 71°
2026-04-22 10:55 24.69950 54.68180 30659 ft 494 kts 71°
2026-04-22 10:56 24.70908 54.71793 30193 ft 490 kts 71°
2026-04-22 10:56 24.71858 54.75379 29723 ft 486 kts 71°
2026-04-22 10:56 24.72800 54.78939 29197 ft 482 kts 71°
2026-04-22 10:56 24.73719 54.82412 28518 ft 464 kts 71°
2026-04-22 10:57 24.74631 54.85776 27423 ft 455 kts 71°
2026-04-22 10:57 24.75536 54.89092 26257 ft 449 kts 72°
2026-04-22 10:57 24.76424 54.92370 25116 ft 444 kts 72°
2026-04-22 10:57 24.77288 54.95603 24063 ft 438 kts 73°
2026-04-22 10:58 24.78133 54.98799 23013 ft 430 kts 73°
2026-04-22 10:58 24.78944 55.01889 21971 ft 421 kts 73°
2026-04-22 10:58 24.79743 55.04945 20976 ft 411 kts 74°
2026-04-22 10:58 24.80524 55.07942 20007 ft 402 kts 74°
2026-04-22 10:59 24.81288 55.10874 19041 ft 394 kts 74°
2026-04-22 10:59 24.82036 55.13743 18104 ft 387 kts 74°
2026-04-22 10:59 24.82771 55.16564 17052 ft 379 kts 74°
2026-04-22 10:59 24.83491 55.19331 16036 ft 372 kts 74°
2026-04-22 11:00 24.84197 55.22048 15039 ft 366 kts 74°
2026-04-22 11:00 24.84891 55.24719 14071 ft 360 kts 75°
2026-04-22 11:00 24.85580 55.27372 13168 ft 366 kts 75°
2026-04-22 11:00 24.86280 55.30069 12598 ft 367 kts 75°
2026-04-22 11:01 24.86982 55.32778 12206 ft 362 kts 75°
2026-04-22 11:01 24.87642 55.35324 12006 ft 331 kts 75°
2026-04-22 11:01 24.88239 55.37629 11804 ft 306 kts 75°
2026-04-22 11:01 24.88799 55.39791 11477 ft 289 kts 75°
2026-04-22 11:02 24.89347 55.41911 11198 ft 283 kts 75°
2026-04-22 11:02 24.89875 55.43960 10688 ft 276 kts 75°
2026-04-22 11:02 24.90398 55.45986 10082 ft 274 kts 76°
2026-04-22 11:02 24.90916 55.47995 9470 ft 272 kts 76°
2026-04-22 11:03 24.91430 55.49991 8854 ft 270 kts 76°
2026-04-22 11:03 24.91941 55.51978 8644 ft 263 kts 76°
2026-04-22 11:03 24.92432 55.53881 8698 ft 256 kts 76°
2026-04-22 11:03 24.92920 55.55775 8742 ft 261 kts 76°
2026-04-22 11:04 24.93425 55.57747 8751 ft 272 kts 76°
2026-04-22 11:04 24.94011 55.59724 8706 ft 269 kts 64°
2026-04-22 11:04 24.95284 55.61161 8506 ft 263 kts 27°
2026-04-22 11:04 24.96989 55.61637 8150 ft 245 kts
2026-04-22 11:05 24.98632 55.61854 7797 ft 231 kts
2026-04-22 11:05 25.00194 55.62084 7377 ft 223 kts
2026-04-22 11:05 25.01716 55.62311 6893 ft 219 kts
2026-04-22 11:05 25.03214 55.62530 6405 ft 216 kts
2026-04-22 11:06 25.04701 55.62746 5878 ft 215 kts
2026-04-22 11:06 25.06189 55.62967 5321 ft 216 kts
2026-04-22 11:06 25.07673 55.63184 4853 ft 214 kts
2026-04-22 11:06 25.09153 55.63347 4517 ft 211 kts 354°
2026-04-22 11:07 25.10455 55.62790 4157 ft 202 kts 313°
2026-04-22 11:07 25.11330 55.61529 4045 ft 206 kts 299°
2026-04-22 11:07 25.12089 55.60237 3993 ft 194 kts 298°
2026-04-22 11:07 25.12774 55.59031 3830 ft 177 kts 298°
2026-04-22 11:08 25.13373 55.57958 3647 ft 159 kts 297°
2026-04-22 11:08 25.13939 55.56929 3443 ft 155 kts 297°
2026-04-22 11:08 25.14499 55.55912 3270 ft 156 kts 298°
2026-04-22 11:08 25.15071 55.54877 3083 ft 158 kts 298°
2026-04-22 11:09 25.15646 55.53837 2900 ft 159 kts 298°
2026-04-22 11:09 25.16227 55.52797 2696 ft 158 kts 299°
2026-04-22 11:09 25.16798 55.51763 2463 ft 156 kts 299°
2026-04-22 11:09 25.17355 55.50756 2281 ft 152 kts 300°
2026-04-22 11:10 25.17909 55.49754 2091 ft 153 kts 301°
2026-04-22 11:10 25.18461 55.48757 1899 ft 152 kts 302°
2026-04-22 11:10 25.19001 55.47779 1714 ft 146 kts 304°
2026-04-22 11:10 25.19537 55.46811 1543 ft 148 kts 304°
2026-04-22 11:11 25.20066 55.45855 1348 ft 145 kts 306°
2026-04-22 11:11 25.20591 55.44905 1167 ft 146 kts 304°
2026-04-22 11:11 25.21118 55.43953 988 ft 144 kts 303°
2026-04-22 11:11 25.21633 55.43022 794 ft 140 kts 304°
2026-04-22 11:12 25.22144 55.42093 663 ft 144 kts 305°
2026-04-22 11:12 25.22649 55.41167 376 ft 140 kts 306°
2026-04-22 11:12 25.23172 55.40247 173 ft 146 kts 303°
2026-04-22 11:12 25.23702 55.39292 44 ft 138 kts 301°
2026-04-22 11:13 25.24011 55.38726 36 ft 123 kts 303°
2026-04-22 11:13 25.24468 55.37906 35 ft 65 kts 301°
2026-04-22 11:13 25.24604 55.37662 33 ft 56 kts 302°
2026-04-22 11:13 25.24780 55.37247 34 ft 26 kts 279°
2026-04-22 11:14 25.24786 55.37114 31 ft 12 kts 273°
2026-04-22 11:14 25.24791 55.37008 29 ft 15 kts 276°
2026-04-22 11:14 25.24796 55.36976 28 ft 1 kts 285°
2026-04-22 11:14 25.24799 55.36967 28 ft 2 kts 288°
2026-04-22 11:15 25.24803 55.36954 29 ft 0 kts 292°
2026-04-22 11:15 25.24804 55.36953 29 ft 0 kts 292°
2026-04-22 11:15 25.24818 55.36918 28 ft 7 kts 294°
2026-04-22 11:16 25.24858 55.36807 28 ft 24 kts 284°
2026-04-22 11:16 25.24914 55.36627 27 ft 25 kts 301°
2026-04-22 11:16 25.24974 55.36505 27 ft 0 kts 288°
2026-04-22 11:16 25.24975 55.36500 27 ft 1 kts 287°
2026-04-22 11:17 25.24976 55.36486 28 ft 2 kts 272°
2026-04-22 11:17 25.24932 55.36426 27 ft 15 kts 212°
2026-04-22 11:17 25.24863 55.36380 26 ft 5 kts 211°
2026-04-22 11:17 25.24844 55.36367 30 ft 0 kts 211°